DW8722 Weather Reports


time (UTC)temp
C
wind
direction
speed
KPH
gust
KPH
rain 1hr
cm
rain 24hr
cm
rain mn
cm
humidity
%
barometer
mb
20260502163932 20 42 3.2 8.0 0.00 0.00 0.00 41 1022.2
20260502162912 20 344 1.6 6.4 0.00 0.00 0.00 41 1022.3
20260502161931 20 46 1.6 11.3 0.00 0.00 0.00 42 1022.3
20260502160926 20 290 4.8 11.3 0.00 0.00 0.00 41 1022.3
20260502151819 18 28 3.2 12.9 0.00 0.00 0.00 52 1022.2
20260502150823 18 318 3.2 12.9 0.00 0.00 0.00 54 1022.2
20260502130605 10 0 0.0 1.6 0.00 0.00 0.00 90 1021.2
20260502123643 8 337 0.0 0.0 0.00 0.00 0.00 89 1020.9
20260502122653 8 337 0.0 0.0 0.00 0.00 0.00 89 1020.8
20260502121639 7 317 0.0 1.6 0.00 0.00 0.00 90 1020.5
20260502120632 7 325 1.6 4.8 0.00 0.00 0.00 90 1020.5
20260502115604 7 321 0.0 4.8 0.00 0.00 0.00 90 1020.3
20260502114605 7 305 0.0 1.6 0.00 0.00 0.00 89 1020.3
20260502113549 7 294 0.0 0.0 0.00 0.00 0.00 90 1020.0
20260502111432 8 295 0.0 0.0 0.00 0.00 0.00 89 1019.8
20260502110455 8 292 0.0 0.0 0.00 0.00 0.00 90 1019.6
20260502105437 8 298 0.0 0.0 0.00 0.00 0.00 90 1019.5
20260502104439 8 307 0.0 0.0 0.00 0.00 0.00 90 1019.3
20260502103448 8 313 0.0 0.0 0.00 0.00 0.00 90 1019.2
20260502102500 8 285 0.0 0.0 0.00 0.00 0.00 90 1019.3
20260502101439 8 285 0.0 0.0 0.00 0.00 0.00 90 1019.2
20260502100408 9 285 0.0 0.0 0.00 0.00 0.00 90 1019.2
20260502091309 8 281 0.0 1.6 0.00 0.00 0.00 90 1019.1
20260502090255 8 279 0.0 1.6 0.00 0.00 0.00 90 1019.0
20260502071130 10 318 0.0 0.0 0.00 0.00 0.00 92 1019.0
20260502065050 10 298 0.0 0.0 0.00 0.00 0.00 91 1019.0
20260502064100 10 284 0.0 0.0 0.00 0.00 0.00 91 1019.0
20260502063118 10 286 0.0 0.0 0.00 0.00 0.00 91 1019.0
20260502062143 10 286 0.0 0.0 0.00 0.00 0.00 90 1019.1
20260502055941 10 286 0.0 0.0 0.00 0.03 0.00 90 1019.1
20260502054930 11 286 0.0 0.0 0.00 0.03 0.00 91 1019.2
20260502053940 11 291 0.0 0.0 0.00 0.03 0.00 90 1019.3
20260502052925 11 250 0.0 0.0 0.00 0.03 0.00 90 1019.2
20260502051852 11 250 0.0 0.0 0.00 0.03 0.00 90 1019.1
20260502050846 11 250 0.0 0.0 0.00 0.05 0.00 89 1019.0
20260502044808 12 248 0.0 0.0 0.00 0.05 0.05 89 1018.8
20260502043825 12 248 0.0 0.0 0.00 0.05 0.05 89 1018.7
20260502042824 12 233 0.0 0.0 0.00 0.05 0.05 89 1018.7
20260502041836 12 227 0.0 0.0 0.00 0.05 0.05 88 1018.8
20260502040805 12 227 0.0 0.0 0.00 0.05 0.05 88 1018.9
20260502034626 13 129 0.0 0.0 0.00 0.05 0.05 87 1018.9
20260502033601 13 129 0.0 0.0 0.00 0.05 0.05 87 1018.8
20260502032615 13 129 0.0 0.0 0.00 0.05 0.05 85 1018.8
20260502031627 13 129 0.0 0.0 0.00 0.05 0.05 85 1018.7
20260502030626 13 129 0.0 0.0 0.00 0.05 0.05 85 1018.6
20260502024457 14 129 0.0 0.0 0.00 0.05 0.05 85 1018.6
20260502022251 15 129 0.0 0.0 0.00 0.05 0.05 84 1018.3
20260502021250 15 129 0.0 0.0 0.00 0.05 0.05 82 1018.0
20260502020252 15 129 0.0 0.0 0.00 0.05 0.05 81 1017.8
20260502015245 15 129 0.0 0.0 0.00 0.05 0.05 81 1017.6
20260502014217 15 129 0.0 0.0 0.00 0.05 0.05 79 1017.4
20260502013227 16 129 0.0 0.0 0.00 0.05 0.05 79 1017.4
20260502012250 16 129 0.0 0.0 0.00 0.05 0.05 78 1017.2
20260502011245 16 119 0.0 0.0 0.00 0.05 0.05 77 1017.0
20260502010227 16 119 0.0 0.0 0.00 0.05 0.05 75 1016.8
20260502005241 16 119 0.0 0.0 0.00 0.05 0.05 75 1016.7
20260502004248 16 144 0.0 0.0 0.00 0.05 0.05 74 1016.5
20260502003310 16 140 0.0 0.0 0.00 0.05 0.05 74 1016.4
20260502002254 17 96 0.0 0.0 0.00 0.05 0.05 73 1016.2
20260502001313 17 104 0.0 0.0 0.00 0.05 0.05 73 1016.1
20260502000334 17 92 0.0 0.0 0.00 0.05 0.05 71 1015.9
20260501235351 17 94 0.0 0.0 0.00 0.05 0.05 70 1015.9
20260501234338 17 95 0.0 0.0 0.00 0.05 0.05 69 1015.7
20260501233356 17 111 0.0 3.2 0.00 0.05 0.05 69 1015.6
20260501232340 17 122 0.0 1.6 0.00 0.05 0.05 68 1015.6
20260501231359 17 99 0.0 0.0 0.00 0.05 0.05 66 1015.5
20260501225159 17 107 0.0 0.0 0.00 0.05 0.05 65 1015.3
20260501224154 17 106 1.6 0.0 0.00 0.05 0.05 65 1015.2
20260501223211 17 103 1.6 9.7 0.00 0.05 0.05 64 1015.2
20260501222146 17 109 1.6 11.3 0.00 0.05 0.05 64 1015.2
20260501221157 17 83 1.6 11.3 0.00 0.05 0.05 64 1015.0
20260501220218 17 74 1.6 20.9 0.00 0.05 0.05 63 1014.9
20260501215223 18 62 3.2 11.3 0.00 0.05 0.05 62 1015.0
20260501214216 18 55 1.6 6.4 0.00 0.05 0.05 60 1014.8
20260501212032 18 87 6.4 16.1 0.00 0.05 0.05 58 1015.3
20260501211002 18 107 6.4 16.1 0.00 0.05 0.05 59 1015.5
20260501205939 18 96 4.8 14.5 0.00 0.05 0.05 62 1015.6
20260501204933 18 77 4.8 17.7 0.00 0.05 0.05 61 1015.8
20260501203930 17 71 9.7 19.3 0.00 0.05 0.05 62 1016.3
20260501202951 18 50 8.0 19.3 0.00 0.05 0.05 61 1016.2
20260501201917 17 42 8.0 25.7 0.00 0.05 0.05 63 1016.3
20260501193926 17 10 11.3 25.7 0.00 0.08 0.05 61 1015.5
20260501192935 17 34 12.9 37.0 0.00 0.08 0.05 61 1015.5
20260501191946 18 78 16.1 37.0 0.00 0.08 0.05 61 1015.9
20260501190934 18 0 16.1 29.0 0.00 0.08 0.05 61 1015.7
20260501185912 18 48 12.9 33.8 0.00 0.08 0.05 60 1015.8
20260501184842 18 66 14.5 33.8 0.00 0.08 0.05 61 1016.0
20260501183810 18 42 12.9 25.7 0.00 0.08 0.05 61 1016.2
20260501182802 17 94 9.7 27.4 0.00 0.08 0.05 67 1016.5
20260501181800 17 64 12.9 27.4 0.00 0.08 0.05 67 1016.7
20260501180802 16 36 11.3 25.7 0.00 0.08 0.05 66 1017.2
20260501175742 16 22 11.3 27.4 0.00 0.08 0.05 67 1017.3
20260501174803 16 36 12.9 27.4 0.00 0.08 0.05 67 1017.4
20260501173823 16 355 12.9 27.4 0.00 0.08 0.05 66 1017.4